Location: Daybis Observatory
(33.4273°N, 88.8061°W)
Time: 07:48:24
(UTC-06:00)

Daily predictions for brighter satellites

Satellite Brightness Start Highest point End
(mag) Time Altitude Azimuth Time Altitude Azimuth Time Altitude Azimuth
IDEFIX/ARIANE 42P 2.7 17:08:23 10° SSE 17:13:25 54° ENE 17:18:27 10° N
MSX 4.3 17:08:23 10° SE 17:13:35 37° ENE 17:18:48 10° N
Meteor 1-12 Rocket 4.5 17:07:56 10° N 17:13:49 87° W 17:19:47 10° S
CZ-2C R/B 2.6 17:10:37 10° SSE 17:15:31 58° ENE 17:20:35 10° N
Thor Agena Rocket 3.6 17:10:43 10° NNE 17:15:58 79° ESE 17:21:15 10° S
Cosmos 2278 Rocket 4.0 17:13:01 10° WSW 17:17:54 30° WNW 17:22:50 10° N
USA 234 3.4 17:13:37 10° NE 17:20:10 78° NW 17:26:41 10° SW
PAYLOAD A 4.1 17:15:37 10° S 17:20:27 80° WSW 17:25:30 10° NNW
Okean 1-7 Rocket 3.7 17:18:50 10° S 17:23:15 58° E 17:27:38 10° NNE
Cosmos 1666 4.1 17:22:12 10° NNE 17:25:00 19° ENE 17:27:46 10° ESE
SMAP 3.0 17:21:46 10° SSE 17:26:23 72° ENE 17:31:02 10° N
Genesis I 4.5 17:23:19 10° NW 17:27:04 46° WSW 17:30:47 10° S
ASTRO F (AKARI) 4.4 17:24:52 10° NNE 17:27:59 53° ESE 17:31:09 10° S
Tiangong 1 3.3 17:32:56 10° NW 17:34:38 14° N 17:36:16 10° NNE
SJ-12 4.1 17:31:03 10° S 17:35:08 76° WSW 17:39:16 10° NNW
Cosmos 1346 Rocket 4.1 17:31:50 10° SSW 17:35:30 40° W 17:39:11 10° N
Cosmos 1833 Rocket 2.7 17:30:31 10° NNW 17:36:06 61° ENE 17:41:38 10° SSE
NOSS 3-4 (A) 4.3 17:29:59 10° NNW 17:36:32 38° NE 17:43:24 10° ESE
NOSS 3-4 (C) 4.3 17:30:05 10° NNW 17:36:38 38° NE 17:43:29 10° ESE
Meteor 2-21 4.4 17:30:46 10° N 17:36:56 86° E 17:43:02 10° S
SL-24 DEB 4.2 17:32:22 10° N 17:37:05 87° E 17:41:44 10° S
Cosmos 1606 Rocket 4.4 17:38:24 10° NNE 17:42:18 29° ENE 17:46:11 10° SE
AQUARIUS 4.5 17:38:36 10° S 17:43:04 72° W 17:47:33 10° NNW
Cosmos 921 Rocket 4.4 17:42:52 10° SW 17:46:50 38° WNW 17:50:54 10° N
Cosmos 2082 Rocket 2.2 17:42:02 10° NNW 17:47:44 88° WSW 17:53:25 10° SSE
Cosmos 2056 Rocket 3.5 17:43:03 10° SSW 17:48:25 81° ESE 17:53:44 10° NNE
Cosmos 407 Rocket 4.3 17:44:08 10° N 17:48:28 27° ENE 17:52:49 10° ESE
Cosmos 1025 Rocket 3.0 17:45:28 10° S 17:49:49 75° E 17:54:13 10° N
Cosmos 1535 Rocket 4.5 17:44:08 10° N 17:50:18 60° E 17:56:21 10° SSE
Cosmos 1743 2.6 17:47:51 10° N 17:51:43 90° NE 17:55:33 10° S
COSMO-SKYMED 1 2.5 17:48:09 10° NNE 17:52:30 69° ESE 17:56:48 10° S
Meteor 2-14 Rocket 4.4 17:46:51 10° N 17:53:01 84° E 17:59:08 10° S
Meteor 1-28 Rocket 3.7 17:51:38 16° NE 17:54:18 37° E 17:57:47 10° SSE
Orbus 7S? 3.0 17:58:10 10° SSW 18:01:01 38° SE 18:01:28 35° E
Cosmos 1624 Rocket 4.3 17:55:56 10° SSW 18:01:05 69° WNW 18:06:17 10° NNE
Cosmos 2239 Rocket 4.4 17:55:01 10° N 18:01:12 76° E 18:07:19 10° S
Intercosmos 25 3.6 18:00:48 10° NNW 18:03:59 62° W 18:08:01 10° S
Abrixas 3.1 18:02:42 10° WNW 18:05:35 54° SW 18:07:55 14° SE
Cosmos 1484 Rocket 2.6 18:05:39 10° S 18:09:23 87° W 18:13:06 10° NNW
YAOGAN 1 4.3 18:07:20 10° SSW 18:11:16 34° W 18:15:14 10° NNW
NOAA 12 4.3 18:08:54 10° SE 18:13:52 44° ENE 18:18:51 10° N
Cosmos 1821 Rocket 3.9 18:08:17 10° N 18:14:25 87° W 18:20:31 10° S
Cosmos 2369 Rocket 2.3 18:14:37 10° S 18:20:07 55° ESE 18:22:50 29° NE
Cosmos 2058 Rocket 3.2 18:16:12 10° N 18:20:32 49° E 18:24:48 10° SSE
Cosmos 1605 Rocket 3.9 18:19:08 10° N 18:25:19 62° E 18:31:23 10° SSE
Meteor 2-9 Rocket 4.1 18:20:36 10° N 18:25:59 83° W 18:31:17 10° S
ATLAS 3B CENTAUR R/B 4.2 18:08:35 10° W 18:31:44 66° SSW 18:37:23 24° ESE
Okean 2 4.2 18:28:33 10° SSW 18:32:36 52° W 18:36:27 11° N
Meteor 1-15 Rocket 4.2 18:30:11 10° N 18:36:04 87° W 18:41:49 10° S
Cosmos 1340 3.1 18:32:32 10° SSW 18:36:16 59° W 18:37:49 32° NNW
Cosmos 1452 Rocket 3.4 18:31:58 10° SSW 18:37:12 87° WNW 18:39:51 30° NNE
Delta 2 Rocket 3.0 18:34:37 10° WNW 18:38:10 82° NW 18:38:10 82° NW
Cosmos 1190 Rocket 4.1 18:36:15 10° NNW 18:41:28 74° WSW 18:46:37 10° S
METEOR-M 4.0 18:39:09 10° SSE 18:44:27 77° ENE 18:49:48 10° N
Cosmos 1943 Rocket 3.0 18:39:42 10° S 18:43:25 33° SE 18:43:25 33° SE
Cosmos 1727 Rocket 4.3 18:53:54 10° SSW 19:00:04 66° W 19:06:10 10° N
FALCON 9 R/B 2.8 18:53:05 10° W 19:12:33 86° N 19:13:37 68° E
Cosmos 2369 Rocket 4.5 20:00:39 10° W 20:04:28 18° WNW 20:04:42 18° NW
